Flag for Jordan Weather past 2 weeks in Amman, Jordan

Now
73 °F

Scattered clouds.


Feels Like: 77 °F
Forecast: 56 / 73 °F
Wind: 14 mph from Northwest

Location: Amman Airport

Current Time: May 29, 2015 at 4:19:17 PM

Latest Report: May 29, 2015 at 4:00 PM


Visibility: 3 mi

Pressure: 29.89 "Hg

Humidity: 38%

Dew point: 46 °F

Location of AmmanLocation

Historic Weather in Amman — Graph

°F

Amman temperature yesterday

Maximum temperature yesterday: 93 °F (at 1:00 PM)
Minimum temperature yesterday: 68 °F (at 11:00 PM)
Average temperature yesterday: 84 °F

Past Weeks' High & Low Weather Summary

 TemperatureHumidityPressure
High97 °F (May 19, 3:00 PM)78% (May 23, 10:00 AM)30.24 "Hg (May 23, 10:00 AM)
Low55 °F (May 15, 4:00 AM)8% (May 18, 1:00 PM)29.83 "Hg (May 28, 4:00 PM)
Average76 °F31%30.00 "Hg
* Reported May 14 3:00 PM — May 29 3:00 PM, Amman, Weather by CustomWeather, © 2015

Note: Actual official high and low records may vary slightly from our data, if they occured in-between our weather recording intervals... More about our weather records

Advertising

Amman weather history for previous 24 hours

 ConditionsComfort  
Time TempWeatherWind HumidityBarometerVisibility
3:00 PM
Fri, May 29
73 °FScattered clouds.15 mph38%29.92 "Hg3 mi
2:00 PM73 °FScattered clouds.17 mph38%29.92 "Hg3 mi
1:00 PM72 °FPartly sunny.18 mph41%29.89 "Hg3 mi
12:00 PM70 °FPartly sunny.10 mph43%29.89 "Hg3 mi
11:00 AM70 °FPartly sunny.16 mph43%29.89 "Hg3 mi
10:00 AM66 °FPartly sunny.12 mph52%29.89 "Hg3 mi
9:00 AM64 °FPartly sunny.9 mph60%29.89 "Hg3 mi
8:00 AM63 °FScattered clouds.12 mph73%29.89 "Hg2 mi
7:00 AM61 °FScattered clouds.14 mph72%29.89 "Hg2 mi
6:00 AM59 °FPassing clouds.14 mph77%29.89 "Hg2 mi
4:00 AM61 °FHaze.14 mph77%29.86 "Hg2 mi
3:00 AM61 °FHaze.12 mph72%29.86 "Hg2 mi
2:00 AM63 °FHaze.15 mph73%29.86 "Hg3 mi
1:00 AM64 °FHaze.13 mph68%29.86 "Hg3 mi
12:00 AM66 °FHaze.7 mph60%29.86 "Hg3 mi
11:00 PM
Thu, May 28
68 °FHaze.8 mph53%29.86 "Hg3 mi
10:00 PM72 °FHaze.7 mph38%29.86 "Hg3 mi
9:00 PM72 °FDuststorm.9 mph38%29.86 "Hg2 mi
8:00 PM73 °FDuststorm.9 mph38%29.86 "Hg2 mi
7:00 PM75 °FDuststorm.12 mph39%29.86 "Hg2 mi
6:00 PM81 °FDuststorm.14 mph32%29.83 "Hg2 mi
5:00 PM84 °FSandstorm.18 mph33%29.83 "Hg1 mi
4:00 PM86 °FSandstorm.21 mph29%29.83 "Hg1 mi
Weather by CustomWeather, © 2015

See weather overviewHow to use our weather pages